Location: Krasnoyarskiy Pitomnik
(51.1333°N, 71.6167°E)
Time: 09:45:43
(UTC+00:00)

Cosmos 2333 Rocket - Pass Details

Date: 22 October 2021
Orbit: 837 x 865 km, 70.8° (Epoch: 07 December)

Event Time Altitude Azimuth Distance (km) Brightness Sun altitude
Exits shadow 22:30:22 - 340° (NNW) 2,659 4.8 -31.5°
Reaches altitude 10° 22:30:52 10° 343° (NNW) 2,505 4.7 -31.5°
Maximum altitude 22:35:41 27° 40° (NE) 1,615 4.1 -30.8°
Drops below altitude 10° 22:40:30 10° 97° (E) 2,506 5.4 -30.1°
Sets 22:43:22 0° 110° (ESE) 3,442 6.1 -29.6°
